Date,TemperatureHighF,TemperatureAvgF,TemperatureLowF,DewpointHighF,DewpointAvgF,DewpointLowF,HumidityHigh,HumidityAvg,HumidityLow,PressureMaxIn,PressureMinIn,WindSpeedMaxMPH,WindSpeedAvgMPH,GustSpeedMaxMPH,PrecipitationSumIn
2013-1-1,46,38,33,45,38,33,99,98,95,31.57,31.53,6,3,9,0.00
2013-1-2,48,37,31,48,37,30,99,98,95,31.53,31.42,6,1,10,0.00
2013-1-3,45,36,28,44,35,28,99,98,95,31.42,31.31,7,2,11,0.27
2013-1-4,51,45,38,51,44,38,99,99,96,31.39,31.31,9,3,17,0.00
2013-1-5,50,44,42,50,44,42,99,98,96,31.37,31.35,5,2,11,0.05
2013-1-6,49,44,41,49,44,41,99,99,97,31.37,31.33,9,5,18,0.00
2013-1-7,57,49,44,56,48,44,99,99,97,31.40,31.21,12,5,22,0.03
2013-1-8,53,48,45,52,48,44,99,99,99,31.41,31.30,13,5,28,0.65
2013-1-9,52,47,40,52,46,40,99,99,96,31.34,31.34,10,4,22,0.57
2013-1-10,48,41,34,48,41,34,99,99,98,31.34,31.34,4,1,8,0.00
2013-1-11,43,35,30,42,35,30,99,98,92,31.58,31.34,8,3,12,0.00
2013-1-12,43,34,29,41,33,28,99,98,90,31.57,31.51,7,1,10,0.00
2013-1-13,47,35,29,46,34,29,99,98,93,31.70,31.57,2,0,5,0.00
2013-1-14,48,38,34,48,37,33,99,98,95,31.60,31.57,5,2,10,0.00
2013-1-15,47,39,33,46,38,33,99,98,96,31.57,31.17,7,1,10,0.00
2013-1-16,47,38,33,47,37,32,99,97,91,31.17,30.98,6,1,12,0.00
2013-1-17,44,39,34,43,39,34,99,99,99,30.98,30.98,3,1,6,0.00
2013-1-18,44,39,37,44,39,37,99,99,99,30.98,30.71,4,2,7,0.00
2013-1-19,45,40,38,45,40,38,99,99,98,30.88,30.71,5,3,8,0.00
2013-1-20,50,42,38,50,42,37,99,98,93,30.80,30.71,6,3,9,0.00
2013-1-21,45,41,38,45,41,38,99,99,98,30.71,30.70,5,1,7,0.00
2013-1-22,51,40,37,49,40,37,99,97,93,30.70,30.54,3,1,5,0.00
2013-1-23,47,44,40,47,43,40,99,99,98,30.62,30.43,8,3,17,0.19
2013-1-24,50,45,42,50,45,42,99,99,98,30.67,30.56,5,3,12,0.08
2013-1-25,59,48,40,58,47,39,99,98,91,30.56,30.47,6,4,13,0.03
2013-1-26,50,44,40,50,44,39,99,99,97,30.55,30.45,7,3,14,0.08
2013-1-27,46,42,37,46,42,36,99,99,99,30.63,30.52,7,3,13,0.00
2013-1-28,45,42,38,45,41,37,99,99,99,30.58,30.52,4,1,7,0.14
2013-1-29,54,47,42,54,46,42,99,98,95,30.83,30.58,6,1,10,0.16
2013-1-30,56,50,47,55,50,47,99,98,97,30.83,30.80,5,1,11,0.03
2013-1-31,58,50,48,57,50,48,99,98,95,30.83,30.75,10,3,21,0.05
2013-2-1,58,49,41,56,48,40,99,96,89,30.84,30.76,6,3,8,0.00
2013-2-2,56,47,41,55,46,41,99,97,92,30.82,30.73,8,3,13,0.00
2013-2-3,60,48,44,58,47,43,99,97,91,30.75,30.68,6,3,10,0.00
2013-2-4,60,50,45,59,49,44,99,97,90,30.68,30.51,6,3,12,0.00
2013-2-5,56,48,44,55,48,43,99,98,94,30.51,30.44,11,6,26,0.24
2013-2-6,58,48,43,55,47,42,99,97,90,30.59,30.44,9,5,19,0.11
2013-2-7,59,47,36,57,46,35,99,96,87,30.69,30.47,10,5,24,0.08
2013-2-8,55,42,32,54,41,32,99,96,92,30.75,30.69,3,1,5,0.00
2013-2-9,54,45,41,53,44,40,99,96,92,30.84,30.72,4,1,5,0.00
2013-2-10,50,44,40,49,44,39,99,97,94,30.85,30.80,3,0,4,0.03
2013-2-11,56,47,42,55,46,42,99,96,91,30.80,30.77,4,2,8,0.00
2013-2-12,57,49,45,56,48,44,99,97,94,30.82,30.72,10,3,20,0.00
2013-2-13,57,49,44,55,48,44,99,97,92,30.92,30.75,4,1,7,0.00
2013-2-14,56,49,46,55,49,45,99,98,96,31.01,30.92,5,2,10,0.03
2013-2-15,62,50,40,58,48,38,99,95,85,31.00,30.71,6,3,10,0.00
2013-2-16,60,48,39,58,47,38,99,97,88,30.71,30.65,7,3,11,0.00
2013-2-17,58,45,38,56,44,36,99,96,87,30.72,30.63,4,1,7,0.00
2013-2-18,58,45,38,54,43,37,97,93,84,30.63,30.36,7,3,13,0.00
2013-2-19,58,44,34,55,42,32,98,93,86,30.53,30.34,8,2,11,0.00
2013-2-20,52,42,34,50,41,32,99,96,92,30.56,30.52,8,2,15,0.05
2013-2-21,56,45,39,51,43,38,98,93,82,30.56,30.53,10,4,20,0.03
2013-2-22,59,45,35,56,42,33,96,91,72,30.56,30.29,15,8,27,0.24
2013-2-23,61,44,33,58,42,32,96,92,86,30.67,30.44,6,2,10,0.00
2013-2-24,54,46,40,51,44,39,99,92,84,30.79,30.54,11,6,23,0.03
2013-2-25,64,45,34,53,41,31,96,87,61,30.72,30.45,10,5,23,0.11
2013-2-26,53,43,33,49,40,30,93,89,83,30.77,30.66,9,4,19,0.00
2013-2-27,59,46,37,55,43,35,95,91,84,30.78,30.66,7,2,15,0.08
2013-2-28,58,50,44,57,48,43,96,95,90,30.77,30.69,9,4,20,0.27
2013-3-1,69,56,51,64,54,50,98,93,79,30.80,30.74,15,8,29,0.05
2013-3-2,67,52,40,62,50,38,96,91,80,30.78,30.62,10,5,20,0.00
2013-3-3,66,46,34,63,44,32,97,92,79,30.77,30.71,6,2,11,0.00
2013-3-4,60,42,32,56,40,30,97,92,83,30.78,30.51,8,3,11,0.00
2013-3-5,61,46,38,55,43,37,99,90,76,30.51,30.35,4,2,8,0.05
2013-3-6,47,44,40,44,41,38,93,91,89,30.45,30.24,6,3,10,0.22
2013-3-7,64,48,40,58,45,36,94,87,78,30.61,30.45,7,2,16,0.08
2013-3-8,62,46,35,54,41,30,90,82,66,30.71,30.59,8,3,11,0.00
2013-3-9,71,45,33,56,38,29,88,77,55,30.90,30.71,4,1,7,0.00
2013-3-10,62,46,37,54,40,32,86,79,65,30.95,30.90,4,1,7,0.00
2013-3-11,61,50,42,50,42,37,85,77,62,30.91,30.67,5,1,11,0.00
2013-3-12,63,53,48,57,49,44,90,85,74,30.67,30.60,12,8,23,0.03
2013-3-13,61,53,49,55,49,46,91,86,77,30.71,30.64,12,8,27,0.00
2013-3-14,63,52,48,53,47,43,87,81,65,30.68,30.59,10,5,24,0.00
2013-3-15,72,56,45,60,49,41,91,78,55,30.71,30.67,9,5,17,0.00
2013-3-16,72,51,36,51,41,27,84,70,41,30.69,30.49,11,5,22,0.00
2013-3-17,60,43,32,46,34,25,82,73,53,30.70,30.54,7,3,17,0.11
2013-3-18,64,47,36,51,37,26,84,70,50,30.72,30.63,9,4,21,0.03
2013-3-19,65,46,35,47,36,26,82,70,43,30.72,30.59,5,2,9,0.49
2013-3-20,70,52,38,53,43,26,93,74,39,30.59,30.55,14,7,36,0.51
2013-3-21,58,43,33,45,33,26,78,69,56,30.71,30.59,8,3,13,0.00
2013-3-22,65,42,32,47,32,22,78,67,48,30.81,30.71,7,2,10,0.00
2013-3-23,69,43,32,46,30,22,75,61,37,30.89,30.81,5,1,8,0.00
2013-3-24,73,46,31,46,31,22,73,57,31,30.82,30.64,3,1,6,0.00
2013-3-25,79,51,33,50,32,22,71,49,30,30.65,30.51,5,2,8,0.00
2013-3-26,74,55,44,44,34,28,56,45,32,30.59,30.53,4,1,7,0.00
2013-3-27,69,53,43,48,36,30,63,53,36,30.60,30.56,5,1,7,0.00
2013-3-28,81,54,42,55,40,30,76,60,37,30.67,30.60,4,1,6,0.08
2013-3-29,79,56,45,52,40,30,70,55,36,30.78,30.66,7,2,10,0.00
2013-3-30,70,53,39,46,36,27,68,54,40,30.80,30.68,10,5,14,0.00
2013-3-31,74,56,44,45,36,30,60,48,32,30.68,30.57,8,4,12,0.00
2013-4-1,84,56,45,55,39,29,66,54,28,30.72,30.59,6,4,12,0.00
2013-4-2,73,54,44,49,38,31,66,55,38,30.77,30.72,7,3,13,0.00
2013-4-3,74,56,42,47,38,29,66,53,36,30.77,30.65,5,2,8,0.00
2013-4-4,58,52,48,49,42,34,83,68,57,30.65,30.36,9,3,20,0.35
2013-4-5,66,55,49,54,47,41,88,76,57,30.49,30.36,12,7,23,0.38
2013-4-6,69,52,45,55,45,38,90,77,53,30.52,30.44,11,7,23,0.22
2013-4-7,65,49,41,56,42,37,88,78,68,30.50,30.30,7,2,12,0.76
2013-4-8,76,55,43,61,44,36,83,70,43,30.77,30.50,6,2,9,0.05
2013-4-9,66,52,43,51,42,35,78,69,55,30.82,30.77,7,4,15,0.00
2013-4-10,75,57,48,57,46,37,88,66,44,30.77,30.58,9,5,20,0.14
2013-4-11,70,52,44,52,39,32,75,62,43,30.83,30.71,6,2,10,0.00
2013-4-12,52,46,40,41,37,31,79,70,63,30.76,30.40,9,4,20,0.08
2013-4-13,72,50,35,55,40,30,84,70,47,30.61,30.40,9,3,22,0.14
2013-4-14,77,51,37,55,39,29,84,65,36,30.62,30.54,8,2,14,0.03
2013-4-15,69,52,37,47,37,28,75,57,41,30.71,30.55,10,3,17,0.00
2013-4-16,82,53,36,51,35,26,76,53,24,30.88,30.71,8,2,15,0.00
2013-4-17,73,52,37,48,35,26,68,53,32,30.92,30.88,8,3,13,0.00
2013-4-18,56,50,42,43,37,30,75,62,57,30.93,30.76,11,4,23,0.00
2013-4-19,68,55,50,55,46,42,79,72,55,30.76,30.63,11,4,25,0.22
2013-4-20,70,54,46,54,44,39,76,69,55,30.78,30.74,7,2,12,0.11
2013-4-21,71,52,41,55,41,31,78,68,49,30.83,30.78,8,3,13,0.03
2013-4-22,70,52,36,44,34,23,79,55,25,30.98,30.83,11,5,17,0.00
2013-4-23,73,54,33,45,32,24,71,46,25,30.91,30.77,10,3,13,0.00
2013-4-24,84,58,37,48,34,25,65,43,20,30.84,30.69,6,2,11,0.00
2013-4-25,98,63,40,48,35,26,63,40,13,30.70,30.69,5,1,8,0.00
2013-4-26,98,63,44,55,38,30,60,42,20,30.69,30.69,9,2,12,0.00
2013-4-27,69,57,51,46,39,34,57,51,39,30.69,30.69,10,4,25,0.00
2013-4-28,75,57,49,50,38,31,65,52,31,30.77,30.69,10,4,23,0.00
2013-4-29,81,55,45,48,38,30,69,54,30,30.77,30.60,8,3,13,0.03
2013-4-30,70,51,36,42,32,26,71,52,30,30.89,30.70,7,2,10,0.00
2013-5-1,75,53,34,41,30,18,67,44,20,31.05,30.89,8,3,13,0.00
2013-5-2,76,57,38,38,29,19,57,37,20,31.03,30.92,9,4,15,0.00
2013-5-3,81,62,46,43,36,28,56,39,23,30.92,30.83,12,7,20,0.00
2013-5-4,87,67,51,43,36,23,53,34,14,30.83,30.82,11,6,16,0.00
2013-5-5,97,71,51,45,35,21,51,30,8,30.82,30.82,10,4,15,0.00
2013-5-6,101,72,49,47,36,21,57,32,7,30.82,30.82,7,2,11,0.00
2013-5-7,98,68,52,53,43,37,64,43,19,30.82,30.82,8,3,13,0.00
2013-5-8,98,66,52,53,42,33,61,45,13,30.82,30.82,5,2,12,0.00
2013-5-9,95,65,47,52,40,30,60,43,19,30.82,30.82,5,1,6,0.00
2013-5-10,91,66,46,54,40,31,60,42,22,30.82,30.82,6,2,8,0.00
2013-5-11,99,70,52,50,40,31,52,35,14,30.82,30.82,8,2,16,0.00
2013-5-12,85,65,58,51,47,37,74,54,25,30.82,30.82,8,4,18,0.00
2013-5-13,74,61,55,53,46,38,73,59,33,30.82,30.82,12,5,28,0.00
2013-5-17,53,52,51,37,37,36,55,55,55,30.82,30.82,1,1,3,0.00
2013-5-18,80,60,48,45,38,32,69,47,20,30.87,30.82,6,3,12,0.00
2013-5-19,78,61,48,48,40,33,64,48,30,30.94,30.87,6,1,8,0.00
2013-5-20,88,61,44,46,38,30,61,45,20,30.94,30.94,9,2,12,0.00
2013-5-21,69,53,47,58,42,36,74,66,50,30.94,30.94,5,2,9,0.00
2013-5-22,69,53,46,50,42,36,78,67,40,30.94,30.58,4,2,8,0.00
2013-5-23,67,54,45,49,40,35,78,60,35,30.60,30.58,7,2,14,0.00
2013-5-24,80,58,44,49,40,34,74,54,23,30.63,30.60,7,2,12,0.00
2013-5-25,81,60,50,46,40,31,71,51,20,30.67,30.63,6,3,13,0.00
2013-5-26,78,59,50,53,44,40,72,59,32,30.65,30.64,6,2,13,0.00
2013-5-27,70,59,50,61,48,40,79,68,58,30.64,30.64,6,3,13,0.00
2013-5-28,76,61,51,52,44,36,80,57,28,30.64,30.64,10,5,19,0.00
2013-5-29,74,58,50,55,45,38,75,62,44,30.64,30.64,8,2,12,0.00
2013-5-30,74,59,48,47,42,37,80,56,28,30.64,30.64,8,4,17,0.00
2013-5-31,89,64,47,50,39,20,72,46,11,30.90,30.64,5,2,8,0.00
2013-6-1,81,62,50,48,40,31,62,45,20,30.89,30.86,8,3,12,0.00
2013-6-2,81,63,53,48,43,37,82,50,23,30.86,30.86,8,3,12,0.00
2013-6-3,79,60,49,50,46,41,92,63,29,30.86,30.86,8,2,11,0.00
2013-6-4,78,63,46,51,39,24,87,48,14,30.86,30.86,9,4,12,0.00
2013-6-5,78,64,49,51,46,40,85,55,30,30.86,30.86,6,1,9,0.00
2013-6-6,80,64,49,51,42,30,91,50,20,30.86,30.86,0,0,0,0.00
2013-6-7,70,60,52,51,45,38,78,59,35,30.86,30.86,0,0,0,0.00
2013-6-8,73,61,54,46,43,38,71,52,32,30.86,30.86,0,0,0,0.00
2013-6-9,70,58,50,47,43,37,85,59,34,30.86,30.86,0,0,0,0.00
2013-6-10,75,60,45,46,40,32,77,50,22,30.86,30.86,0,0,0,0.00
2013-6-11,74,59,51,49,42,29,76,56,20,30.86,30.86,0,0,0,0.00
2013-6-12,75,60,47,48,41,31,94,55,21,30.86,30.86,0,0,0,0.00
2013-6-13,75,60,50,50,43,36,82,57,28,30.86,30.86,0,0,0,0.00
2013-6-14,76,60,51,49,44,35,83,58,24,30.86,30.86,0,0,0,0.00
2013-6-15,77,62,46,52,41,30,99,53,20,30.86,30.64,0,0,0,0.00
2013-6-16,81,64,49,52,46,40,89,56,30,30.64,30.64,0,0,0,0.00
2013-6-17,84,65,50,54,45,30,93,56,15,30.64,30.64,0,0,0,0.00
2013-6-18,82,66,53,56,42,24,99,52,14,30.64,30.64,7,3,15,0.00
2013-6-19,74,60,51,50,47,42,84,62,35,30.64,30.64,5,2,8,0.00
2013-6-20,68,57,53,55,50,43,99,79,43,30.64,30.64,6,3,11,0.00
2013-6-21,75,62,53,59,48,36,99,66,25,30.80,30.64,5,2,8,0.00
2013-6-22,85,66,48,53,44,33,89,53,20,30.80,30.80,7,2,9,0.00
2013-6-23,80,66,58,61,53,45,86,64,37,30.80,30.80,3,1,8,0.00
2013-6-24,78,64,58,59,52,42,98,67,30,30.80,30.80,8,2,16,0.00
2013-6-25,81,64,56,60,52,38,99,71,25,30.80,30.80,5,1,12,0.00
2013-6-26,82,66,56,59,54,44,99,71,31,30.80,30.80,6,2,19,0.00
2013-6-27,74,65,58,63,58,52,95,79,59,30.80,30.80,4,1,9,0.00
2013-6-28,94,73,57,62,57,49,99,63,26,30.80,30.80,8,2,11,0.00
2013-6-29,89,73,62,61,56,50,90,58,30,30.80,30.80,7,2,10,0.00
2013-6-30,92,74,56,57,52,45,87,50,20,30.80,30.80,8,3,12,0.00
2013-7-1,89,74,61,58,53,48,82,50,30,30.80,30.80,6,2,10,0.00
2013-7-2,81,69,57,57,50,40,86,55,25,30.80,30.80,6,3,11,0.00
2013-7-3,78,66,58,51,44,32,78,48,20,30.80,30.80,7,4,11,2.57
2013-7-4,81,66,56,51,47,38,79,54,24,30.80,30.80,5,2,8,0.00
2013-7-5,86,68,51,54,48,41,94,54,22,30.80,30.80,5,2,9,0.00
2013-7-6,82,65,52,56,45,34,89,54,20,30.80,30.80,8,2,11,0.00
2013-7-7,86,69,52,56,50,46,86,54,28,30.80,30.80,5,2,10,0.00
2013-7-8,90,66,55,52,50,44,88,61,23,30.80,30.80,5,2,10,0.00
2013-7-9,84,70,54,56,48,38,91,51,22,30.80,30.80,8,3,12,0.00
2013-7-10,83,66,54,53,47,42,83,52,26,30.80,30.80,6,3,11,0.00
2013-7-11,76,62,56,46,42,34,67,50,24,30.80,30.80,8,3,12,0.00
2013-7-12,78,61,50,48,44,36,79,56,25,30.80,30.80,4,1,10,0.00
2013-7-13,77,63,46,52,38,19,88,47,12,30.80,30.80,8,3,13,0.00
2013-7-14,82,66,47,51,38,22,86,43,13,30.80,30.80,8,3,12,0.00
2013-7-15,81,66,50,50,37,21,87,41,12,30.80,30.80,12,5,19,0.00
2013-7-16,86,73,60,43,33,19,43,26,9,30.80,30.80,11,5,17,0.00
2013-7-17,83,68,58,54,48,42,79,52,26,30.80,30.80,9,5,21,0.00
2013-7-18,80,66,56,53,49,43,82,57,32,30.80,30.80,6,2,8,0.00
2013-7-19,80,65,52,55,51,48,91,64,35,30.80,30.80,6,2,10,0.00
2013-7-20,81,64,55,55,53,48,97,70,35,30.80,30.80,6,2,8,0.00
2013-7-21,86,66,53,57,52,47,90,63,30,30.80,30.80,4,2,10,0.00
2013-7-22,86,68,57,55,52,46,91,61,27,30.80,30.80,5,2,8,0.00
2013-7-23,84,66,54,56,47,23,99,59,11,30.80,30.80,9,3,13,0.00
2013-7-24,83,68,54,55,46,33,97,50,17,30.80,30.80,6,2,8,0.00
2013-7-25,83,68,51,51,46,40,87,51,23,30.80,30.80,6,2,9,0.00
2013-7-26,83,68,52,52,44,32,85,47,20,30.80,30.80,7,3,12,0.00
2013-7-27,87,68,50,51,42,33,87,46,16,30.80,30.80,6,2,10,0.00
2013-7-28,76,62,53,51,48,43,93,63,32,30.80,30.80,6,4,14,0.00
2013-7-29,82,66,54,51,47,42,85,55,25,30.80,30.80,5,2,11,0.00
2013-7-30,87,66,54,53,50,45,92,59,25,30.80,30.80,6,2,10,0.00
2013-7-31,78,64,54,56,52,48,91,68,37,30.80,30.80,5,1,9,0.00
2013-8-1,60,60,59,56,55,54,85,84,84,30.80,30.80,4,2,7,0.00
2013-8-2,66,62,59,59,57,52,99,85,68,30.80,30.80,3,1,6,0.16
2013-8-3,77,65,58,59,54,46,99,72,35,30.80,30.80,6,3,9,0.00
2013-8-4,81,67,53,56,52,47,99,64,32,30.80,30.80,7,3,11,0.00
2013-8-5,84,69,54,57,50,45,97,56,29,30.80,30.80,8,2,10,0.00
2013-8-6,84,68,52,56,46,34,97,52,20,30.80,30.80,7,2,10,0.00
2013-8-7,88,69,52,55,46,34,96,50,18,30.80,30.80,8,2,10,0.00
2013-8-8,85,70,55,56,52,47,89,58,32,30.80,30.80,6,2,10,0.00
2013-8-9,90,79,73,54,49,47,43,36,25,30.80,30.80,5,1,9,0.03
2013-8-10,79,73,71,52,51,49,51,45,36,30.80,30.80,6,3,12,0.30
2013-8-11,71,71,71,51,51,51,49,49,49,30.80,30.80,7,3,10,0.00
2013-8-12,71,71,71,51,51,51,49,49,49,30.80,30.80,6,2,9,0.00
2013-8-13,71,71,71,51,51,51,49,49,49,30.80,30.80,7,2,9,0.00
2013-8-14,71,71,71,51,51,51,49,49,49,30.80,30.80,2,0,4,0.00
2013-9-14,71,71,71,51,51,51,49,49,49,30.86,30.86,1,0,2,0.00
2013-9-15,71,71,71,51,51,51,49,49,49,30.86,30.86,6,2,12,0.00
2013-9-16,71,71,71,51,51,51,49,49,49,30.86,30.86,9,4,16,0.00
2013-9-17,71,71,71,51,51,51,49,49,49,30.86,30.86,5,0,8,0.00
2013-9-18,71,71,71,51,51,51,49,49,49,30.86,30.86,6,1,11,0.00
2013-9-19,71,71,71,51,51,51,49,49,49,30.86,30.86,3,1,6,0.00
2013-9-20,71,71,71,51,51,51,49,49,49,30.86,30.86,6,3,13,0.00
2013-9-21,71,71,71,51,51,51,49,49,49,30.86,30.86,5,2,10,0.00
2013-9-22,71,71,71,51,51,51,49,49,49,30.86,30.86,10,6,18,0.00
2013-9-23,71,71,71,51,51,51,49,49,49,30.86,30.86,9,5,20,0.00
2013-9-24,71,71,71,51,51,51,49,49,49,30.86,30.86,7,2,13,0.00
2013-9-25,71,71,71,51,51,51,49,49,49,30.86,30.86,8,3,14,0.00
2013-9-26,71,71,71,51,51,51,49,49,49,30.86,30.78,5,1,9,0.00
2013-9-27,71,71,71,51,51,51,49,49,49,30.78,30.78,11,5,20,0.00
2013-9-28,71,54,32,51,-4,-76,49,28,49,30.78,30.78,13,6,26,0.00
2013-9-30,32,32,32,-76,-76,-76,0,0,100,30.78,30.46,12,7,25,0.00
2013-10-1,32,32,32,-76,-76,-76,0,0,100,30.69,30.46,9,5,20,0.00
2013-10-2,32,32,32,-76,-76,-76,0,0,100,30.77,30.69,8,3,17,0.00
2013-10-3,32,32,32,-76,-76,-76,0,0,100,30.97,30.77,4,1,6,0.00
2013-10-4,32,32,32,-76,-76,-76,0,0,100,30.99,30.90,3,1,5,0.00
2013-10-5,32,32,32,-76,-76,-76,0,0,100,30.91,30.79,5,1,8,0.00
2013-10-6,32,32,32,-76,-76,-76,0,0,100,30.79,30.60,8,4,22,0.00
2013-10-7,32,32,32,-76,-76,-76,0,0,100,30.60,30.60,11,5,20,0.00
2013-10-8,32,32,32,-76,-76,-76,0,0,100,30.60,30.60,9,2,21,0.00
2013-10-9,32,32,32,-76,-76,-76,0,0,100,30.75,30.60,4,1,7,0.00
2013-10-10,32,32,32,-76,-76,-76,0,0,100,30.70,30.64,4,1,5,0.00
2013-10-11,32,32,32,-76,-76,-76,0,0,100,30.70,30.70,3,0,4,0.00
2013-10-12,32,32,32,-76,-76,-76,0,0,100,30.76,30.70,8,2,11,0.00
2013-10-13,32,32,32,-76,-76,-76,0,0,100,30.92,30.76,5,1,8,0.00
2013-10-14,32,32,32,-76,-76,-76,0,0,100,30.96,30.91,6,2,9,0.00
2013-10-15,32,32,32,-76,-76,-76,0,0,100,30.93,30.78,3,1,6,0.00
2013-10-16,32,32,32,-76,-76,-76,0,0,100,30.78,30.75,9,2,15,0.00
2013-10-17,32,32,32,-76,-76,-76,0,0,100,30.83,30.78,5,1,8,0.00
2013-10-18,32,32,32,-76,-76,-76,0,0,100,30.81,30.81,5,2,8,0.00
2013-10-19,32,32,32,-76,-76,-76,0,0,100,30.81,30.76,4,2,7,0.00
2013-10-20,32,32,32,-76,-76,-76,0,0,100,30.79,30.76,5,3,10,0.00
2013-10-21,32,32,32,-76,-76,-76,0,0,100,30.77,30.71,5,3,9,0.00
2013-10-22,32,32,32,-76,-76,-76,0,0,100,30.73,30.67,5,3,8,0.00
2013-10-23,32,32,32,-76,-76,-76,0,0,100,30.67,30.67,3,1,3,0.00
2013-10-24,32,32,32,-76,-76,-76,0,0,100,30.71,30.69,2,1,4,0.00
2013-10-25,32,32,32,-76,-76,-76,0,0,100,30.89,30.70,5,1,8,0.00
2013-10-26,32,32,32,-76,-76,-76,0,0,100,30.90,30.81,8,2,13,0.00
2013-10-27,32,32,32,-76,-76,-76,0,0,100,30.81,30.57,14,6,26,0.00
2013-10-28,32,32,32,-76,-76,-76,0,0,100,30.61,30.59,14,8,24,0.00
2013-10-29,32,32,32,-76,-76,-76,0,0,100,30.66,30.61,4,1,6,0.00
2013-10-30,32,32,32,-76,-76,-76,0,0,100,30.71,30.66,9,3,18,0.00
2013-10-31,32,32,32,-76,-76,-76,0,0,100,30.82,30.68,10,3,22,0.00
2013-11-1,32,32,32,-76,-76,-76,0,0,100,30.83,30.54,5,2,10,0.00
2013-11-2,32,32,32,-76,-76,-76,0,0,100,30.54,30.54,16,7,37,0.00
2013-11-8,32,32,32,-76,-76,-76,0,0,100,30.71,30.71,4,2,8,0.00
2013-11-9,32,32,32,-76,-76,-76,0,0,100,30.75,30.68,4,1,6,0.03
2013-11-10,32,32,32,-76,-76,-76,0,0,100,30.79,30.68,8,5,12,0.08
2013-11-11,32,32,32,-76,-76,-76,0,0,100,30.75,30.64,5,1,9,0.00
2013-11-12,32,32,32,-76,-76,-76,0,0,100,30.88,30.64,9,5,18,0.22
2013-11-13,32,32,32,-76,-76,-76,0,0,100,30.96,30.87,9,2,17,0.00
2013-11-14,32,32,32,-76,-76,-76,0,0,100,30.87,30.71,4,1,8,0.05
2013-11-15,32,32,32,-76,-76,-76,0,0,100,30.71,30.41,13,4,25,0.00
2013-11-16,32,32,32,-76,-76,-76,0,0,100,30.41,30.26,6,2,11,0.00
2013-11-17,32,32,32,-76,-76,-76,0,0,100,30.51,30.39,12,7,28,0.03
2013-11-18,32,32,32,-76,-76,-76,0,0,100,30.51,30.28,10,5,22,0.95
2013-11-19,32,32,32,-76,-76,-76,0,0,100,30.66,30.28,11,4,20,0.11
2013-11-20,32,32,32,-76,-76,-76,0,0,100,30.92,30.66,10,6,17,0.00
2013-11-21,32,32,32,-76,-76,-76,0,0,100,30.97,30.92,8,4,12,0.00
2013-11-22,32,32,32,-76,-76,-76,0,0,100,30.97,30.97,8,4,13,0.00
2013-11-23,32,32,32,-76,-76,-76,0,0,100,30.86,30.72,6,2,8,0.00
2013-11-24,32,32,32,-76,-76,-76,0,0,100,30.74,30.68,5,1,8,0.00
2013-11-25,32,32,32,-76,-76,-76,0,0,100,30.77,30.74,3,1,5,0.00
2013-11-26,32,32,32,-76,-76,-76,0,0,100,30.76,30.64,5,2,8,0.00
2013-11-27,32,32,32,-76,-76,-76,0,0,100,30.64,30.56,4,1,6,0.00
2013-11-28,32,32,32,-76,-76,-76,0,0,100,30.71,30.61,3,0,5,0.03
2013-11-29,32,32,32,-76,-76,-76,0,0,100,30.79,30.70,4,1,8,0.00
2013-11-30,32,32,32,-76,-76,-76,0,0,100,30.80,30.76,10,6,21,0.03
2013-12-1,32,32,32,-76,-76,-76,0,0,100,30.77,30.43,10,5,21,0.03
2013-12-2,32,32,32,-76,-76,-76,0,0,100,30.63,30.47,10,2,15,0.00
2013-12-3,32,32,32,-76,-76,-76,0,0,100,30.86,30.63,15,8,23,0.03
2013-12-4,32,32,32,-76,-76,-76,0,0,100,30.90,30.78,7,3,11,0.00
2013-12-5,32,32,32,-76,-76,-76,0,0,100,30.90,30.73,3,0,4,0.00
2013-12-6,32,32,32,-76,-76,-76,0,0,100,30.79,30.71,10,4,16,0.00
2013-12-7,32,32,32,-76,-76,-76,0,0,100,30.72,30.72,11,6,17,0.00
2013-12-8,32,32,32,-76,-76,-76,0,0,100,30.72,30.72,4,1,6,0.00
2013-12-9,32,32,32,-76,-76,-76,0,0,100,30.72,30.72,6,2,9,0.00
2013-12-10,32,32,32,-76,-76,-76,0,0,100,30.72,30.72,0,0,0,0.00
2013-12-11,32,32,32,-76,-76,-76,0,0,100,30.72,30.72,0,0,0,0.00
2013-12-12,32,32,32,-76,-76,-76,0,0,100,30.72,30.72,0,0,0,0.03
2013-12-13,32,32,32,-76,-76,-76,0,0,100,30.72,30.72,0,0,0,0.00
2013-12-14,32,32,32,-76,-76,-76,0,0,100,30.91,30.72,0,0,0,0.00
2013-12-15,32,32,32,-76,-76,-76,0,0,100,30.97,30.85,0,0,0,0.08
2013-12-16,32,32,32,-76,-76,-76,0,0,100,30.97,30.79,0,0,0,0.00
2013-12-17,32,32,32,-76,-76,-76,0,0,100,30.81,30.66,0,0,0,0.00
2013-12-18,32,32,32,-76,-76,-76,0,0,100,30.68,30.59,0,0,0,0.03
2013-12-19,32,32,32,-76,-76,-76,0,0,100,30.74,30.68,0,0,0,0.00
2013-12-20,32,32,32,-76,-76,-76,0,0,100,30.69,30.33,0,0,0,0.11
2013-12-21,32,32,32,-76,-76,-76,0,0,100,30.36,30.36,0,0,0,0.11
2013-12-22,32,32,32,-76,-76,-76,0,0,100,30.36,30.01,0,0,0,0.11
2013-12-23,32,32,32,-76,-76,-76,0,0,100,30.21,29.89,14,4,26,0.00
2013-12-24,32,32,32,-76,-76,-76,0,0,100,30.21,30.21,2,0,3,0.00